| time (UTC) | temp F | wind direction | speed MPH | gust MPH | rain 1hr in | rain 24hr in | rain mn in | humidity % | barometer mb |
| 20260507124538 | 52 | 0 | 1.0 | 4.0 | 0.00 | 0.07 | 0.00 | 87 | 1018.2 |
| 20260507123043 | 51 | 69 | 0.0 | 4.0 | 0.00 | 0.07 | 0.00 | 90 | 1018.1 |
| 20260507121540 | 50 | 63 | 1.0 | 4.0 | 0.00 | 0.07 | 0.00 | 91 | 1017.8 |
| 20260507120039 | 49 | 324 | 0.0 | 2.0 | 0.00 | 0.07 | 0.00 | 92 | 1017.7 |
| 20260507114538 | 49 | 72 | 0.0 | 2.0 | 0.00 | 0.07 | 0.00 | 92 | 1017.3 |
| 20260507113040 | 49 | 4 | 0.0 | 2.0 | 0.00 | 0.07 | 0.00 | 92 | 1017.1 |
| 20260507111547 | 49 | 0 | 0.0 | 1.0 | 0.00 | 0.07 | 0.00 | 92 | 1017.1 |
| 20260507110049 | 49 | 79 | 0.0 | 2.0 | 0.00 | 0.07 | 0.00 | 92 | 1017.0 |
| 20260507104541 | 49 | 0 | 0.0 | 5.0 | 0.00 | 0.12 | 0.00 | 92 | 1016.9 |
| 20260507103039 | 49 | 24 | 1.0 | 5.0 | 0.00 | 0.12 | 0.00 | 92 | 1016.7 |
| 20260507101556 | 50 | 0 | 1.0 | 3.0 | 0.00 | 0.12 | 0.00 | 92 | 1016.7 |
| 20260507100038 | 50 | 53 | 0.0 | 3.0 | 0.00 | 0.12 | 0.00 | 92 | 1016.5 |
| 20260507094541 | 50 | 0 | 0.0 | 2.0 | 0.00 | 0.14 | 0.00 | 92 | 1016.5 |
| 20260507093042 | 50 | 146 | 0.0 | 1.0 | 0.00 | 0.14 | 0.00 | 92 | 1016.2 |
| 20260507091553 | 51 | 42 | 0.0 | 1.0 | 0.00 | 0.14 | 0.00 | 92 | 1016.2 |
| 20260507090051 | 51 | 0 | 0.0 | 2.0 | 0.00 | 0.14 | 0.00 | 92 | 1016.4 |
| 20260507084538 | 51 | 3 | 0.0 | 2.0 | 0.00 | 0.24 | 0.00 | 92 | 1015.8 |
| 20260507083045 | 51 | 0 | 0.0 | 1.0 | 0.00 | 0.24 | 0.00 | 92 | 1016.1 |
| 20260507081553 | 52 | 298 | 0.0 | 1.0 | 0.00 | 0.24 | 0.00 | 92 | 1016.4 |
| 20260507080041 | 52 | 0 | 0.0 | 1.0 | 0.00 | 0.24 | 0.00 | 92 | 1016.3 |
| 20260507074542 | 52 | 0 | 0.0 | 2.0 | 0.00 | 0.40 | 0.00 | 92 | 1016.2 |
| 20260507073054 | 52 | 0 | 0.0 | 1.0 | 0.00 | 0.40 | 0.00 | 91 | 1016.5 |
| 20260507071538 | 52 | 0 | 0.0 | 2.0 | 0.00 | 0.40 | 0.00 | 91 | 1016.2 |
| 20260507070058 | 52 | 314 | 0.0 | 1.0 | 0.00 | 0.40 | 0.00 | 92 | 1016.6 |
| 20260507064543 | 52 | 0 | 0.0 | 1.0 | 0.00 | 0.40 | 0.00 | 92 | 1016.7 |
| 20260507063037 | 52 | 0 | 0.0 | 2.0 | 0.00 | 0.40 | 0.00 | 92 | 1016.5 |
| 20260507061543 | 52 | 0 | 0.0 | 2.0 | 0.00 | 0.40 | 0.00 | 92 | 1016.2 |
| 20260507060037 | 52 | 319 | 0.0 | 2.0 | 0.00 | 0.40 | 0.00 | 92 | 1016.2 |
| 20260507054546 | 52 | 0 | 0.0 | 1.0 | 0.00 | 0.40 | 0.00 | 92 | 1016.2 |
| 20260507053042 | 52 | 345 | 0.0 | 1.0 | 0.00 | 0.40 | 0.00 | 92 | 1016.1 |
| 20260507051539 | 52 | 31 | 0.0 | 1.0 | 0.00 | 0.40 | 0.00 | 92 | 1015.9 |
| 20260507050037 | 52 | 44 | 0.0 | 3.0 | 0.00 | 0.40 | 0.00 | 92 | 1016.0 |
| 20260507044545 | 52 | 71 | 0.0 | 1.0 | 0.00 | 0.40 | 0.40 | 92 | 1015.9 |
| 20260507043041 | 52 | 338 | 0.0 | 1.0 | 0.00 | 0.40 | 0.40 | 92 | 1016.0 |
| 20260507041545 | 52 | 37 | 0.0 | 2.0 | 0.00 | 0.40 | 0.40 | 92 | 1016.5 |
| 20260507040049 | 52 | 45 | 0.0 | 2.0 | 0.00 | 0.40 | 0.40 | 92 | 1016.4 |
| 20260507034547 | 52 | 350 | 0.0 | 2.0 | 0.00 | 0.40 | 0.40 | 92 | 1017.0 |
| 20260507033044 | 52 | 4 | 0.0 | 1.0 | 0.00 | 0.40 | 0.40 | 92 | 1017.0 |
| 20260507031542 | 52 | 76 | 0.0 | 2.0 | 0.00 | 0.40 | 0.40 | 92 | 1016.7 |
| 20260507030041 | 52 | 328 | 0.0 | 2.0 | 0.00 | 0.40 | 0.40 | 92 | 1016.7 |
| 20260507024545 | 52 | 6 | 1.0 | 5.0 | 0.00 | 0.40 | 0.40 | 92 | 1016.1 |
| 20260507023044 | 52 | 64 | 1.0 | 3.0 | 0.00 | 0.40 | 0.40 | 92 | 1016.0 |
| 20260507021543 | 52 | 55 | 1.0 | 4.0 | 0.00 | 0.40 | 0.40 | 92 | 1015.9 |
| 20260507020040 | 53 | 26 | 0.0 | 4.0 | 0.00 | 0.40 | 0.40 | 92 | 1015.6 |
| 20260507014552 | 53 | 84 | 0.0 | 7.0 | 0.00 | 0.40 | 0.40 | 92 | 1015.6 |
| 20260507013047 | 53 | 41 | 3.0 | 6.0 | 0.00 | 0.40 | 0.40 | 92 | 1015.2 |
| 20260507011538 | 53 | 108 | 1.0 | 5.0 | 0.00 | 0.40 | 0.40 | 92 | 1015.1 |
| 20260507010038 | 53 | 56 | 1.0 | 6.0 | 0.00 | 0.40 | 0.40 | 92 | 1015.6 |
| 20260507004543 | 53 | 0 | 1.0 | 4.0 | 0.00 | 0.40 | 0.40 | 91 | 1015.4 |
| 20260507003039 | 53 | 65 | 1.0 | 5.0 | 0.00 | 0.40 | 0.40 | 91 | 1015.7 |
| 20260507001537 | 54 | 43 | 1.0 | 4.0 | 0.00 | 0.40 | 0.40 | 91 | 1015.8 |
| 20260507000042 | 54 | 328 | 1.0 | 5.0 | 0.00 | 0.40 | 0.40 | 91 | 1015.9 |
| 20260506234544 | 54 | 328 | 0.0 | 5.0 | 0.00 | 0.40 | 0.40 | 91 | 1015.7 |
| 20260506233044 | 54 | 18 | 0.0 | 4.0 | 0.00 | 0.40 | 0.40 | 91 | 1015.4 |
| 20260506231542 | 54 | 8 | 0.0 | 5.0 | 0.00 | 0.40 | 0.40 | 90 | 1015.3 |
| 20260506230040 | 54 | 35 | 2.0 | 7.0 | 0.00 | 0.40 | 0.40 | 90 | 1014.8 |
| 20260506224538 | 54 | 63 | 3.0 | 6.0 | 0.00 | 0.40 | 0.40 | 91 | 1014.1 |
| 20260506223038 | 54 | 29 | 2.0 | 5.0 | 0.01 | 0.40 | 0.40 | 91 | 1014.2 |
| 20260506221545 | 54 | 15 | 1.0 | 5.0 | 0.01 | 0.40 | 0.40 | 91 | 1014.9 |
| 20260506220038 | 55 | 72 | 1.0 | 5.0 | 0.02 | 0.40 | 0.40 | 92 | 1014.2 |
| 20260506214537 | 55 | 46 | 2.0 | 5.0 | 0.03 | 0.40 | 0.40 | 92 | 1014.7 |
| 20260506213040 | 54 | 64 | 2.0 | 4.0 | 0.03 | 0.39 | 0.39 | 92 | 1015.2 |
| 20260506211538 | 54 | 92 | 1.0 | 4.0 | 0.06 | 0.39 | 0.39 | 92 | 1015.6 |
| 20260506210038 | 53 | 57 | 1.0 | 3.0 | 0.05 | 0.38 | 0.38 | 92 | 1014.8 |
| 20260506204537 | 53 | 0 | 1.0 | 5.0 | 0.04 | 0.38 | 0.37 | 91 | 1015.7 |
| 20260506203042 | 53 | 58 | 2.0 | 5.0 | 0.02 | 0.36 | 0.35 | 90 | 1015.8 |
| 20260506201600 | 54 | 65 | 3.0 | 9.0 | 0.00 | 0.34 | 0.33 | 90 | 1015.9 |
| 20260506200040 | 54 | 349 | 3.0 | 8.0 | 0.00 | 0.34 | 0.33 | 91 | 1015.6 |
| 20260506194548 | 54 | 19 | 2.0 | 7.0 | 0.00 | 0.34 | 0.33 | 91 | 1015.4 |
| 20260506193050 | 54 | 27 | 3.0 | 6.0 | 0.00 | 0.34 | 0.33 | 91 | 1016.2 |
| 20260506191544 | 54 | 356 | 1.0 | 5.0 | 0.00 | 0.34 | 0.33 | 90 | 1015.8 |
| 20260506190037 | 54 | 305 | 1.0 | 6.0 | 0.00 | 0.34 | 0.33 | 91 | 1015.7 |
| 20260506184549 | 54 | 282 | 3.0 | 6.0 | 0.00 | 0.34 | 0.33 | 91 | 1015.5 |
| 20260506183040 | 53 | 329 | 1.0 | 5.0 | 0.00 | 0.34 | 0.33 | 93 | 1015.6 |
| 20260506181540 | 53 | 46 | 2.0 | 6.0 | 0.00 | 0.34 | 0.33 | 94 | 1015.4 |
| 20260506180038 | 53 | 9 | 2.0 | 5.0 | 0.00 | 0.34 | 0.33 | 93 | 1015.5 |
| 20260506174542 | 53 | 272 | 2.0 | 6.0 | 0.00 | 0.40 | 0.33 | 94 | 1015.6 |
| 20260506173059 | 53 | 68 | 2.0 | 6.0 | 0.00 | 0.40 | 0.33 | 94 | 1015.7 |
| 20260506171551 | 53 | 321 | 1.0 | 5.0 | 0.00 | 0.40 | 0.33 | 94 | 1015.9 |
| 20260506170040 | 53 | 359 | 1.0 | 7.0 | 0.00 | 0.40 | 0.33 | 94 | 1015.5 |
| 20260506164538 | 54 | 316 | 2.0 | 7.0 | 0.00 | 0.72 | 0.33 | 95 | 1015.0 |
| 20260506163052 | 53 | 89 | 1.0 | 9.0 | 0.00 | 0.72 | 0.33 | 95 | 1015.1 |
| 20260506161545 | 53 | 298 | 2.0 | 7.0 | 0.00 | 0.72 | 0.33 | 95 | 1015.3 |
| 20260506160043 | 52 | 300 | 2.0 | 7.0 | 0.00 | 0.72 | 0.33 | 95 | 1014.2 |
| 20260506154550 | 52 | 65 | 1.0 | 6.0 | 0.00 | 0.86 | 0.33 | 95 | 1015.0 |
| 20260506153041 | 53 | 339 | 2.0 | 6.0 | 0.00 | 0.86 | 0.33 | 95 | 1015.4 |
| 20260506151539 | 52 | 271 | 2.0 | 6.0 | 0.00 | 0.86 | 0.33 | 95 | 1014.0 |
| 20260506150039 | 52 | 323 | 1.0 | 4.0 | 0.00 | 0.86 | 0.33 | 95 | 1014.5 |
| 20260506144538 | 52 | 44 | 1.0 | 3.0 | 0.00 | 0.94 | 0.33 | 95 | 1014.4 |
| 20260506143042 | 52 | 63 | 2.0 | 6.0 | 0.00 | 0.94 | 0.33 | 95 | 1014.4 |
| 20260506141542 | 53 | 11 | 0.0 | 4.0 | 0.00 | 0.94 | 0.33 | 95 | 1014.7 |
| 20260506140047 | 53 | 75 | 1.0 | 4.0 | 0.00 | 0.94 | 0.33 | 95 | 1014.3 |
| 20260506134537 | 53 | 323 | 1.0 | 3.0 | 0.00 | 0.94 | 0.33 | 95 | 1014.3 |
| 20260506133038 | 53 | 308 | 1.0 | 4.0 | 0.00 | 0.94 | 0.33 | 95 | 1014.3 |
| 20260506131538 | 53 | 359 | 0.0 | 2.0 | 0.00 | 0.94 | 0.33 | 95 | 1013.7 |
| 20260506130043 | 52 | 0 | 1.0 | 3.0 | 0.00 | 0.94 | 0.33 | 95 | 1013.3 |